Location: Newark
(50.0953°N, 2.1719°E)
Time: 06:43:14
(UTC+00:00)

N. Korean satellite - Pass Details

Date: 26 January 2020
Orbit: 456 x 505 km, 97.2° (Epoch: 27 February)

Event Time Altitude Azimuth Distance (km) Brightness Sun altitude
Rises 17:29:38 0° 195° (SSW) 2,464 10.7 -9.0°
Reaches altitude 10° 17:31:56 10° 210° (SSW) 1,596 10.0 -9.3°
Maximum altitude 17:34:45 23° 266° (W) 1,010 9.2 -9.7°
Drops below altitude 10° 17:37:36 10° 321° (NW) 1,616 9.5 -10.2°
Sets 17:39:57 0° 336° (NNW) 2,502 10.3 -10.5°
